Regional Weather Roundup
Issued by NWS Albany, NY

Home | Current Version | Previous Version | Text Only | Print | Product List | Glossary On
Versions: 1 2 3 4 5 6 7 8 9 10 11 12 13 14 15 16 17 18 19 20 21 22 23 24 25 26 27 28
000
ASUS41 KALY 230310
RWRALY

NEW YORK STATE HOURLY WEATHER ROUNDUP
NATIONAL WEATHER SERVICE ALBANY NY
1000 PM EST SUN JAN 22 2017

NOTE: "FAIR" INDICATES FEW OR NO CLOUDS BELOW 12,000 FEET WITH NO
SIGNIFICANT WEATHER AND/OR NO OBSTRUCTIONS TO VISIBILITY.

NYZ032-033-038>043-046>054-057>066-NYZ062>081-082-084-230400-
EAST


CITY           SKY/WX    TMP DP  RH WIND       PRES   REMARKS
ALBANY         DRIZZLE   38  34  85 N5        29.87S WCI  34
GLENS FALLS    CLOUDY    36  33  89 N6        29.90R WCI  31
POUGHKEEPSIE   CLOUDY    43  37  79 E9        29.84R
NEWBURGH       CLOUDY    45  41  87 E17G25    29.82R
MONTGOMERY     CLOUDY    47  40  76 E15       29.80R
WHITE PLAINS   MOCLDY    45  39  79 E17G25    29.80R
ISLIP          CLOUDY    45  41  86 NE16G29   29.79R
NEW YORK CITY  CLOUDY    49  40  71 NE18      29.79R
CENTRAL PARK   CLOUDY    46  41  82 E10G22    29.81R
$$

NYZ005>009-017-018-044>046-055-056-230400-
CENTRAL


CITY           SKY/WX    TMP DP  RH WIND       PRES   REMARKS
FULTON         CLOUDY    45  41  86 E8G17     29.76S
SYRACUSE       CLOUDY    43  40  89 E13       29.74F
ROME           CLOUDY    42  40  92 E12       29.80S
ELMIRA         CLOUDY    45  42  89 E7        29.71R FOG
BINGHAMTON     CLOUDY    46  44  93 SE8       29.71S
MONTICELLO     CLOUDY    43  41  93 E7        29.78R
$$

NYZ026>034-041>043-087-230400-
NORTH


CITY           SKY/WX    TMP DP  RH WIND       PRES   REMARKS
WATERTOWN      CLOUDY    34  32  92 NE12      29.83R WCI  25
FORT DRUM      NOT AVBL
OGDENSBURG     CLOUDY    34  31  89 NE14G20   29.89S WCI  24
MASSENA        CLOUDY    33  28  81 NE18      29.94R WCI  22
SARANAC LAKE   CLOUDY    30  29  96 E9        29.82R FOG     WCI  22
PLATTSBURGH    CLOUDY    33  31  92 N8        29.93R FOG     WCI  26
$$

NYZ001>004-010>016-019>021-085-230400-
WEST


CITY           SKY/WX    TMP DP  RH WIND       PRES   REMARKS
NIAGARA FALLS  CLOUDY    38  34  85 E14       29.72S WCI  30
BUFFALO        CLOUDY    38  36  92 NE15      29.71S WCI  29
DUNKIRK        CLOUDY    43  42  97 NE12      29.64F FOG
JAMESTOWN        N/A     50  46  87 E8        29.63S
WELLSVILLE     CLOUDY    49  45  86 E7        29.68S
ROCHESTER      CLOUDY    38  36  92 NE14      29.77R WCI  30
PENN YAN       CLOUDY    41  37  86 CALM      29.73S FOG
$$

             KEY
       WCI = WIND CHILL INDEX
       VSB = VISIBILITY
       HX  = HEAT INDEX
$$




USA.gov is the U.S. government's official web portal to all federal, state and local government web resources and services.